#timestamp,LO_Frequency,Hit,StdDev 
1703815215.6,286047003.9,P
1703815235.4,286047003.3,N
1703815255.3,286046998.5,N
1703815275.1,286046996.1,N
1703815295.8,286046994.5,N
1703815315.7,286047000.6,N
1703815335.5,286046999.6,N
1703815355.4,286046997.2,N
1703815375.2,286046992.5,N
1703815395.0,286046986.9,N
1703815395.9,286046986.9,N
1703815415.8,286046991.4,N
1703815435.6,286046990.4,N
1703815455.5,286046994.0,N
1703815475.3,286046996.3,N
1703815495.1,286046987.9,N
1703815515.9,286046987.8,N
1703815535.7,286046989.1,N
1703815555.5,286046991.1,N
1703815575.4,286046991.7,N
1703815595.2,286046988.8,N
1703815615.1,286046991.2,N
1703815616.0,286046991.2,N
1703815635.8,286046990.7,N
1703815655.6,286046991.1,N
1703815675.5,286046988.4,N
1703815695.3,286046991.2,N
1703815715.2,286046996.2,N
1703815735.9,286046990.5,N
1703815755.7,286046991.2,N
1703815775.6,286046989.2,N
1703815795.4,286046986.9,Y
1703815815.2,286046993.8,P
1703815835.1,286046994.4,P
1703815836.0,286046994.4,P
1703815855.8,286046994.8,Y
1703815875.7,286046996.7,P
1703815895.5,286047000.4,N
1703815915.3,286046999.9,N
1703815935.2,286046998.9,N
1703815955.0,286046999.7,N
1703815955.9,286046999.7,N
1703815975.8,286047000.0,N
1703815995.6,286047002.2,N
1703816015.4,286046999.2,N
1703816035.3,286047001.3,N
1703816055.1,286047006.3,N
1703816075.8,286047003.0,N
1703816095.7,286047007.4,N
1703816115.5,286047005.0,N
1703816135.3,286047005.9,N
1703816155.2,286047008.0,N
1703816175.0,286047009.8,N
1703816175.9,286047009.8,N
1703816195.8,286047011.8,N
1703816215.6,286047011.4,N
1703816235.4,286047006.9,N
1703816255.3,286047003.5,N
1703816275.1,286047003.7,N
1703816295.9,286047008.0,N
1703816315.7,286047009.4,N
1703816335.5,286047007.7,N
1703816355.4,286047008.2,N
1703816375.2,286047007.5,N
1703816395.0,286047005.8,N
1703816395.9,286047005.8,N
1703816415.8,286047001.4,N
1703816435.6,286047007.3,N
1703816455.4,286047006.1,N
1703816475.3,286047005.3,N
1703816495.1,286047003.7,N
1703816515.9,286047007.1,N
1703816535.7,286047008.9,N
1703816555.5,286047010.6,Y
1703816575.4,286047000.5,P
1703816595.2,286046997.1,N
1703816615.1,286046993.9,N
1703816616.0,286046993.9,N
1703816635.8,286046990.9,N
1703816655.6,286046990.6,N
1703816675.5,286046994.7,N
1703816695.3,286046993.0,N
1703816715.1,286046989.2,N
1703816735.9,286046992.2,N
1703816755.7,286046994.0,N
1703816775.6,286046994.3,N
1703816795.4,286046990.6,N
1703816815.2,286046992.5,N
1703816835.1,286046992.2,N
1703816836.0,286046992.2,N
1703816855.8,286046991.4,N
1703816875.7,286046986.1,Y
1703816895.5,286046994.2,P
1703816915.3,286046998.6,P
1703816935.2,286047005.9,N
1703816955.9,286047007.2,N
1703816975.7,286047006.5,N
1703816995.6,286047010.8,N
1703817015.4,286047008.0,N
1703817035.3,286047003.3,N
1703817055.1,286047009.0,N
1703817056.0,286047009.0,N
1703817075.8,286047006.7,N
1703817095.7,286047005.0,N
1703817115.5,286046998.1,N
1703817135.3,286047004.0,N
1703817155.2,286047006.0,N
1703817175.0,286047002.1,N
1703817175.9,286047002.1,N
1703817195.8,286047001.5,N
1703817215.6,286046999.1,N
1703817235.4,286046996.8,N
1703817255.3,286047000.3,N
1703817275.1,286046999.2,N
1703817295.8,286047004.0,N
1703817315.7,286046996.7,N
1703817335.5,286046998.7,N
1703817355.4,286046996.7,N
1703817375.2,286046995.8,N
1703817395.0,286046999.6,N
1703817395.9,286046999.6,N
1703817415.8,286047000.8,N
1703817435.6,286047007.2,N
1703817455.5,286047003.2,N
1703817475.3,286047000.9,N
1703817495.1,286046997.8,N
1703817515.9,286047001.4,N
1703817535.7,286047006.9,N
1703817555.6,286047008.7,N
1703817575.4,286047004.3,N
1703817595.2,286047002.9,N
1703817615.1,286047001.2,N
1703817616.0,286047001.2,N
1703817635.8,286046996.2,N
1703817655.6,286046993.2,N
1703817675.5,286046991.4,N
1703817695.3,286046998.0,N
1703817715.2,286047001.1,N
1703817735.9,286047005.4,N
1703817755.7,286047006.6,N
1703817775.6,286047009.4,N
1703817795.4,286047008.0,N
1703817815.2,286047010.7,N
1703817835.1,286047013.5,N
1703817836.0,286047013.5,N
1703817855.8,286047008.2,N
1703817875.7,286047009.1,N
1703817895.5,286047002.8,N
1703817915.3,286047003.9,N
1703817935.2,286047004.6,N
1703817955.0,286047008.4,N
1703817955.9,286047008.4,N
1703817975.8,286047007.5,N
1703817995.6,286047001.0,N
1703818015.4,286046998.3,N
1703818035.3,286046998.6,N
1703818055.1,286046999.8,N
1703818075.8,286047004.1,N
1703818095.7,286047003.7,N
1703818115.5,286047000.7,N
1703818135.4,286047003.9,N
1703818155.2,286047000.1,N
1703818175.0,286047007.2,N
1703818175.9,286047007.2,N
1703818195.8,286047013.0,N
1703818215.6,286047013.4,N
1703818235.5,286047012.4,N
1703818255.3,286047008.3,N
1703818275.1,286047007.7,N
1703818295.9,286047011.4,N
1703818315.7,286047011.9,N
1703818335.5,286047012.6,N
1703818355.4,286047014.9,Y
1703818375.2,286047009.2,P
1703818395.1,286047009.2,P
1703818396.0,286047009.2,P
1703818415.8,286047008.1,Y
1703818435.6,286047000.4,P
1703818455.5,286046999.7,N
1703818475.3,286046997.0,N
1703818495.2,286046997.9,N
1703818515.9,286046994.1,N
1703818535.7,286046996.0,N
1703818555.6,286046995.0,N
1703818575.4,286046998.8,N
1703818595.2,286047000.8,N
1703818615.1,286046998.6,N
1703818616.0,286046998.6,N
1703818635.8,286046995.3,N
1703818655.7,286046991.8,N
1703818675.5,286046987.0,Y
1703818695.3,286046993.6,P
1703818715.2,286046996.6,N
1703818735.0,286046999.5,N
1703818735.9,286046999.5,N
1703818755.8,286046996.5,N
1703818775.6,286047002.3,N
1703818795.4,286046999.1,N
